owner,sensor,date,latitude,longitude,vertical_datum,wind_speed,wind_to_direction,wind_speed_of_gust,qcFlag 
TCOON,ioos:station:TCOON:009:1,2015-05-01T00:00:00Z,27.8398,-97.0727,0.0,3.5,133.0,5.4,'11111222,11111222,11111222' 
TCOON,ioos:station:TCOON:009:1,2015-05-01T00:06:00Z,27.8398,-97.0727,0.0,3.4,138.0,5.2,'11111222,11111222,11111222' 
TCOON,ioos:station:TCOON:009:1,2015-05-01T00:12:00Z,27.8398,-97.0727,0.0,3.4,125.0,5.4,'11111222,11111222,11111222' 
TCOON,ioos:station:TCOON:009:1,2015-05-01T00:18:00Z,27.8398,-97.0727,0.0,2.9,127.0,5.2,'11111222,11111222,11111222' 
TCOON,ioos:station:TCOON:009:1,2015-05-01T00:24:00Z,27.8398,-97.0727,0.0,2.2,135.0,4.4,'11111222,11111222,11111222' 
TCOON,ioos:station:TCOON:009:1,2015-05-01T00:30:00Z,27.8398,-97.0727,0.0,3.0,129.0,4.7,'11111222,11111222,11111222' 
TCOON,ioos:station:TCOON:009:1,2015-05-01T00:36:00Z,27.8398,-97.0727,0.0,3.0,140.0,4.6,'11111222,11111222,11111222' 
TCOON,ioos:station:TCOON:009:1,2015-05-01T00:42:00Z,27.8398,-97.0727,0.0,3.0,140.0,4.6,'1111122,1111122,1111122' 
TCOON,ioos:station:TCOON:009:1,2015-05-01T00:48:00Z,27.8398,-97.0727,0.0,2.3,153.0,4.2,'11111222,11111222,11111222' 
TCOON,ioos:station:TCOON:009:1,2015-05-01T00:54:00Z,27.8398,-97.0727,0.0,2.2,155.0,3.8,'11111222,11111222,11111222' 
TCOON,ioos:station:TCOON:009:1,2015-05-01T01:00:00Z,27.8398,-97.0727,0.0,2.3,141.0,4.0,'11111222,11111222,11111222' 
TCOON,ioos:station:TCOON:009:1,2015-05-01T01:06:00Z,27.8398,-97.0727,0.0,2.6,143.0,4.0,'11111222,11111222,11111222' 
TCOON,ioos:station:TCOON:009:1,2015-05-01T01:12:00Z,27.8398,-97.0727,0.0,2.0,146.0,3.6,'11111222,11111222,11111222' 
TCOON,ioos:station:TCOON:009:1,2015-05-01T01:18:00Z,27.8398,-97.0727,0.0,2.0,146.0,3.6,'1111122,1111122,1111122' 
TCOON,ioos:station:TCOON:009:1,2015-05-01T01:24:00Z,27.8398,-97.0727,0.0,3.0,138.0,4.9,'11111222,11111222,11111222' 
TCOON,ioos:station:TCOON:009:1,2015-05-01T01:30:00Z,27.8398,-97.0727,0.0,2.5,157.0,4.2,'11111222,11111222,11111222' 
TCOON,ioos:station:TCOON:009:1,2015-05-01T01:36:00Z,27.8398,-97.0727,0.0,2.4,156.0,3.7,'11111222,11111222,11111222' 
TCOON,ioos:station:TCOON:009:1,2015-05-01T01:42:00Z,27.8398,-97.0727,0.0,2.6,146.0,4.0,'11111222,11111222,11111222' 
TCOON,ioos:station:TCOON:009:1,2015-05-01T01:48:00Z,27.8398,-97.0727,0.0,2.1,156.0,4.2,'11111222,11111222,11111222' 
TCOON,ioos:station:TCOON:009:1,2015-05-01T01:54:00Z,27.8398,-97.0727,0.0,2.7,159.0,3.4,'11111222,11111222,11111222' 
TCOON,ioos:station:TCOON:009:1,2015-05-01T02:00:00Z,27.8398,-97.0727,0.0,1.9,157.0,3.8,'11111222,11111222,11111222' 
TCOON,ioos:station:TCOON:009:1,2015-05-01T02:06:00Z,27.8398,-97.0727,0.0,1.8,144.0,3.7,'11111222,11111222,11111222' 
TCOON,ioos:station:TCOON:009:1,2015-05-01T02:12:00Z,27.8398,-97.0727,0.0,2.1,144.0,3.5,'11111222,11111222,11111222' 
TCOON,ioos:station:TCOON:009:1,2015-05-01T02:18:00Z,27.8398,-97.0727,0.0,2.1,144.0,3.5,'1111122,1111122,1111122' 
TCOON,ioos:station:TCOON:009:1,2015-05-01T02:24:00Z,27.8398,-97.0727,0.0,1.8,144.0,3.5,'11111222,11111222,11111222' 
TCOON,ioos:station:TCOON:009:1,2015-05-01T02:30:00Z,27.8398,-97.0727,0.0,2.4,143.0,3.5,'11111222,11111222,11111222' 
TCOON,ioos:station:TCOON:009:1,2015-05-01T02:36:00Z,27.8398,-97.0727,0.0,1.8,139.0,3.2,'11111222,11111222,11111222' 
TCOON,ioos:station:TCOON:009:1,2015-05-01T02:42:00Z,27.8398,-97.0727,0.0,2.2,137.0,4.2,'11111222,11111222,11111222' 
TCOON,ioos:station:TCOON:009:1,2015-05-01T02:48:00Z,27.8398,-97.0727,0.0,2.7,133.0,4.1,'11111222,11111222,11111222' 
TCOON,ioos:station:TCOON:009:1,2015-05-01T02:54:00Z,27.8398,-97.0727,0.0,3.0,138.0,3.6,'11111222,11111222,11111222' 
TCOON,ioos:station:TCOON:009:1,2015-05-01T03:00:00Z,27.8398,-97.0727,0.0,2.4,136.0,3.8,'11111222,11111222,11111222' 
TCOON,ioos:station:TCOON:009:1,2015-05-01T03:06:00Z,27.8398,-97.0727,0.0,3.0,137.0,5.3,'11111222,11111222,11111222' 
TCOON,ioos:station:TCOON:009:1,2015-05-01T03:12:00Z,27.8398,-97.0727,0.0,3.0,137.0,5.3,'1111122,1111122,1111122' 
TCOON,ioos:station:TCOON:009:1,2015-05-01T03:18:00Z,27.8398,-97.0727,0.0,2.7,139.0,4.3,'11111222,11111222,11111222' 
TCOON,ioos:station:TCOON:009:1,2015-05-01T03:24:00Z,27.8398,-97.0727,0.0,3.1,142.0,4.9,'11111222,11111222,11111222' 
TCOON,ioos:station:TCOON:009:1,2015-05-01T03:30:00Z,27.8398,-97.0727,0.0,2.8,146.0,4.4,'11111222,11111222,11111222' 
TCOON,ioos:station:TCOON:009:1,2015-05-01T03:36:00Z,27.8398,-97.0727,0.0,2.8,140.0,4.9,'11111222,11111222,11111222' 
TCOON,ioos:station:TCOON:009:1,2015-05-01T03:42:00Z,27.8398,-97.0727,0.0,3.2,134.0,4.7,'11111222,11111222,11111222' 
TCOON,ioos:station:TCOON:009:1,2015-05-01T03:48:00Z,27.8398,-97.0727,0.0,3.1,143.0,4.4,'11111222,11111222,11111222' 
TCOON,ioos:station:TCOON:009:1,2015-05-01T03:54:00Z,27.8398,-97.0727,0.0,3.2,139.0,4.6,'11111222,11111222,11111222' 
TCOON,ioos:station:TCOON:009:1,2015-05-01T04:00:00Z,27.8398,-97.0727,0.0,2.4,141.0,3.9,'11111222,11111222,11111222' 
TCOON,ioos:station:TCOON:009:1,2015-05-01T04:06:00Z,27.8398,-97.0727,0.0,2.7,141.0,3.7,'11111222,11111222,11111222' 
TCOON,ioos:station:TCOON:009:1,2015-05-01T04:12:00Z,27.8398,-97.0727,0.0,2.9,144.0,4.6,'11111222,11111222,11111222' 
TCOON,ioos:station:TCOON:009:1,2015-05-01T04:18:00Z,27.8398,-97.0727,0.0,2.9,144.0,4.6,'1111122,1111122,1111122' 
TCOON,ioos:station:TCOON:009:1,2015-05-01T04:24:00Z,27.8398,-97.0727,0.0,3.1,146.0,4.2,'11111222,11111222,11111222' 
TCOON,ioos:station:TCOON:009:1,2015-05-01T04:30:00Z,27.8398,-97.0727,0.0,3.2,145.0,4.8,'11111222,11111222,11111222' 
TCOON,ioos:station:TCOON:009:1,2015-05-01T04:36:00Z,27.8398,-97.0727,0.0,2.8,146.0,4.3,'11111222,11111222,11111222' 
TCOON,ioos:station:TCOON:009:1,2015-05-01T04:42:00Z,27.8398,-97.0727,0.0,2.4,142.0,5.6,'11111222,11111222,11111222' 
TCOON,ioos:station:TCOON:009:1,2015-05-01T04:48:00Z,27.8398,-97.0727,0.0,3.1,142.0,4.7,'11111222,11111222,11111222' 
TCOON,ioos:station:TCOON:009:1,2015-05-01T04:54:00Z,27.8398,-97.0727,0.0,2.9,142.0,5.2,'11111222,11111222,11111222' 
TCOON,ioos:station:TCOON:009:1,2015-05-01T05:00:00Z,27.8398,-97.0727,0.0,3.7,140.0,5.5,'11111222,11111222,11111222' 
TCOON,ioos:station:TCOON:009:1,2015-05-01T05:06:00Z,27.8398,-97.0727,0.0,2.7,147.0,4.5,'11111222,11111222,11111222' 
TCOON,ioos:station:TCOON:009:1,2015-05-01T05:12:00Z,27.8398,-97.0727,0.0,3.0,146.0,4.7,'11111222,11111222,11111222' 
TCOON,ioos:station:TCOON:009:1,2015-05-01T05:18:00Z,27.8398,-97.0727,0.0,3.0,146.0,4.7,'1111122,1111122,1111122' 
TCOON,ioos:station:TCOON:009:1,2015-05-01T05:24:00Z,27.8398,-97.0727,0.0,3.2,144.0,4.9,'11111222,11111222,11111222' 
TCOON,ioos:station:TCOON:009:1,2015-05-01T05:30:00Z,27.8398,-97.0727,0.0,2.5,140.0,4.1,'11111222,11111222,11111222' 
TCOON,ioos:station:TCOON:009:1,2015-05-01T05:36:00Z,27.8398,-97.0727,0.0,2.9,144.0,4.3,'11111222,11111222,11111222' 
TCOON,ioos:station:TCOON:009:1,2015-05-01T05:42:00Z,27.8398,-97.0727,0.0,2.2,148.0,4.1,'11111222,11111222,11111222' 
TCOON,ioos:station:TCOON:009:1,2015-05-01T05:48:00Z,27.8398,-97.0727,0.0,2.2,145.0,4.1,'11111222,11111222,11111222' 
TCOON,ioos:station:TCOON:009:1,2015-05-01T05:54:00Z,27.8398,-97.0727,0.0,3.2,149.0,4.4,'11111222,11111222,11111222' 
TCOON,ioos:station:TCOON:009:1,2015-05-01T06:06:00Z,27.8398,-97.0727,0.0,2.7,141.0,4.0,'11111222,11111222,11111222' 
TCOON,ioos:station:TCOON:009:1,2015-05-01T06:18:00Z,27.8398,-97.0727,0.0,2.5,151.0,3.8,'1111122,1111122,1111122' 
TCOON,ioos:station:TCOON:009:1,2015-05-01T06:42:00Z,27.8398,-97.0727,0.0,2.9,152.0,4.4,'11111222,11111222,11111222' 
TCOON,ioos:station:TCOON:009:1,2015-05-01T07:00:00Z,27.8398,-97.0727,0.0,2.2,155.0,3.3,'11111222,11111222,11111222' 
TCOON,ioos:station:TCOON:009:1,2015-05-01T07:12:00Z,27.8398,-97.0727,0.0,1.7,154.0,3.4,'11111222,11111222,11111222' 
TCOON,ioos:station:TCOON:009:1,2015-05-01T07:18:00Z,27.8398,-97.0727,0.0,1.7,154.0,3.4,'1111122,1111122,1111122' 
TCOON,ioos:station:TCOON:009:1,2015-05-01T07:30:00Z,27.8398,-97.0727,0.0,2.1,156.0,3.5,'11111222,11111222,11111222' 
TCOON,ioos:station:TCOON:009:1,2015-05-01T07:36:00Z,27.8398,-97.0727,0.0,2.2,154.0,3.8,'11111222,11111222,11111222' 
TCOON,ioos:station:TCOON:009:1,2015-05-01T07:42:00Z,27.8398,-97.0727,0.0,2.1,158.0,3.6,'11111222,11111222,11111222' 
TCOON,ioos:station:TCOON:009:1,2015-05-01T07:48:00Z,27.8398,-97.0727,0.0,2.4,156.0,3.8,'11111222,11111222,11111222' 
TCOON,ioos:station:TCOON:009:1,2015-05-01T07:54:00Z,27.8398,-97.0727,0.0,2.1,160.0,3.6,'11111222,11111222,11111222' 
TCOON,ioos:station:TCOON:009:1,2015-05-01T08:00:00Z,27.8398,-97.0727,0.0,2.1,159.0,3.4,'11111222,11111222,11111222' 
TCOON,ioos:station:TCOON:009:1,2015-05-01T08:06:00Z,27.8398,-97.0727,0.0,1.7,157.0,4.2,'11111222,11111222,11111222' 
TCOON,ioos:station:TCOON:009:1,2015-05-01T08:12:00Z,27.8398,-97.0727,0.0,1.8,156.0,4.0,'11111222,11111222,11111222' 
TCOON,ioos:station:TCOON:009:1,2015-05-01T08:18:00Z,27.8398,-97.0727,0.0,1.8,156.0,4.0,'1111122,1111122,1111122' 
TCOON,ioos:station:TCOON:009:1,2015-05-01T08:24:00Z,27.8398,-97.0727,0.0,2.7,164.0,3.7,'11111222,11111222,11111222' 
TCOON,ioos:station:TCOON:009:1,2015-05-01T08:30:00Z,27.8398,-97.0727,0.0,2.3,167.0,3.1,'11111222,11111222,11111222' 
TCOON,ioos:station:TCOON:009:1,2015-05-01T08:42:00Z,27.8398,-97.0727,0.0,2.1,164.0,3.8,'11111222,11111222,11111222' 
TCOON,ioos:station:TCOON:009:1,2015-05-01T08:48:00Z,27.8398,-97.0727,0.0,3.1,165.0,4.2,'11111222,11111222,11111222' 
TCOON,ioos:station:TCOON:009:1,2015-05-01T08:54:00Z,27.8398,-97.0727,0.0,2.7,165.0,4.3,'11111222,11111222,11111222' 
TCOON,ioos:station:TCOON:009:1,2015-05-01T09:00:00Z,27.8398,-97.0727,0.0,2.6,170.0,3.9,'11111222,11111222,11111222' 
TCOON,ioos:station:TCOON:009:1,2015-05-01T09:06:00Z,27.8398,-97.0727,0.0,2.6,167.0,3.5,'11111222,11111222,11111222' 
TCOON,ioos:station:TCOON:009:1,2015-05-01T09:12:00Z,27.8398,-97.0727,0.0,2.4,169.0,3.5,'11111222,11111222,11111222' 
TCOON,ioos:station:TCOON:009:1,2015-05-01T09:18:00Z,27.8398,-97.0727,0.0,2.4,169.0,3.5,'1111122,1111122,1111122' 
TCOON,ioos:station:TCOON:009:1,2015-05-01T09:24:00Z,27.8398,-97.0727,0.0,2.8,170.0,4.1,'11111222,11111222,11111222' 
TCOON,ioos:station:TCOON:009:1,2015-05-01T09:30:00Z,27.8398,-97.0727,0.0,2.3,169.0,3.9,'11111222,11111222,11111222' 
TCOON,ioos:station:TCOON:009:1,2015-05-01T09:36:00Z,27.8398,-97.0727,0.0,2.3,173.0,2.8,'11111222,11111222,11111222' 
TCOON,ioos:station:TCOON:009:1,2015-05-01T09:42:00Z,27.8398,-97.0727,0.0,2.7,176.0,3.4,'11111222,11111222,11111222' 
TCOON,ioos:station:TCOON:009:1,2015-05-01T09:48:00Z,27.8398,-97.0727,0.0,2.7,177.0,3.6,'11111222,11111222,11111222' 
TCOON,ioos:station:TCOON:009:1,2015-05-01T09:54:00Z,27.8398,-97.0727,0.0,2.1,177.0,3.1,'11111222,11111222,11111222' 
TCOON,ioos:station:TCOON:009:1,2015-05-01T10:00:00Z,27.8398,-97.0727,0.0,1.9,173.0,3.1,'11111222,11111222,11111222' 
TCOON,ioos:station:TCOON:009:1,2015-05-01T10:06:00Z,27.8398,-97.0727,0.0,2.1,172.0,2.9,'11111222,11111222,11111222' 
TCOON,ioos:station:TCOON:009:1,2015-05-01T10:12:00Z,27.8398,-97.0727,0.0,2.1,172.0,2.9,'1111122,1111122,1111122' 
TCOON,ioos:station:TCOON:009:1,2015-05-01T10:18:00Z,27.8398,-97.0727,0.0,2.2,177.0,2.8,'11111222,11111222,11111222' 
TCOON,ioos:station:TCOON:009:1,2015-05-01T10:24:00Z,27.8398,-97.0727,0.0,1.9,183.0,2.7,'11111222,11111222,11111222' 
TCOON,ioos:station:TCOON:009:1,2015-05-01T10:30:00Z,27.8398,-97.0727,0.0,1.6,176.0,2.1,'11111222,11111222,11111222' 
TCOON,ioos:station:TCOON:009:1,2015-05-01T10:36:00Z,27.8398,-97.0727,0.0,1.5,182.0,2.1,'11111222,11111222,11111222' 
TCOON,ioos:station:TCOON:009:1,2015-05-01T10:42:00Z,27.8398,-97.0727,0.0,1.7,190.0,2.3,'11111222,11111222,11111222' 
TCOON,ioos:station:TCOON:009:1,2015-05-01T10:48:00Z,27.8398,-97.0727,0.0,1.7,184.0,2.2,'11111222,11111222,11111222' 
TCOON,ioos:station:TCOON:009:1,2015-05-01T10:54:00Z,27.8398,-97.0727,0.0,1.7,187.0,2.5,'11111222,11111222,11111222' 
TCOON,ioos:station:TCOON:009:1,2015-05-01T11:00:00Z,27.8398,-97.0727,0.0,1.6,179.0,2.1,'11111222,11111222,11111222' 
TCOON,ioos:station:TCOON:009:1,2015-05-01T11:06:00Z,27.8398,-97.0727,0.0,2.1,189.0,2.3,'11111222,11111222,11111222' 
TCOON,ioos:station:TCOON:009:1,2015-05-01T11:12:00Z,27.8398,-97.0727,0.0,2.0,197.0,2.6,'11111222,11111222,11111222' 
TCOON,ioos:station:TCOON:009:1,2015-05-01T11:18:00Z,27.8398,-97.0727,0.0,2.0,197.0,2.6,'1111122,1111122,1111122' 
TCOON,ioos:station:TCOON:009:1,2015-05-01T11:24:00Z,27.8398,-97.0727,0.0,1.7,183.0,2.5,'11111222,11111222,11111222' 
TCOON,ioos:station:TCOON:009:1,2015-05-01T11:30:00Z,27.8398,-97.0727,0.0,1.6,180.0,2.2,'11111222,11111222,11111222' 
TCOON,ioos:station:TCOON:009:1,2015-05-01T11:36:00Z,27.8398,-97.0727,0.0,1.4,192.0,2.1,'11111222,11111222,11111222' 
TCOON,ioos:station:TCOON:009:1,2015-05-01T11:42:00Z,27.8398,-97.0727,0.0,1.5,184.0,2.0,'11111222,11111222,11111222' 
TCOON,ioos:station:TCOON:009:1,2015-05-01T11:48:00Z,27.8398,-97.0727,0.0,1.4,198.0,1.9,'11111222,11111222,11111222' 
TCOON,ioos:station:TCOON:009:1,2015-05-01T11:54:00Z,27.8398,-97.0727,0.0,1.6,197.0,2.1,'11111222,11111222,11111222' 
TCOON,ioos:station:TCOON:009:1,2015-05-01T12:00:00Z,27.8398,-97.0727,0.0,1.6,195.0,2.1,'11111222,11111222,11111222' 
TCOON,ioos:station:TCOON:009:1,2015-05-01T12:06:00Z,27.8398,-97.0727,0.0,1.6,200.0,1.9,'11111222,11111222,11111222' 
TCOON,ioos:station:TCOON:009:1,2015-05-01T12:12:00Z,27.8398,-97.0727,0.0,1.6,200.0,1.9,'1111122,1111122,1111122' 
TCOON,ioos:station:TCOON:009:1,2015-05-01T12:18:00Z,27.8398,-97.0727,0.0,1.2,197.0,1.8,'11111222,11111222,11111222' 
TCOON,ioos:station:TCOON:009:1,2015-05-01T12:24:00Z,27.8398,-97.0727,0.0,1.6,200.0,2.1,'11111222,11111222,11111222' 
TCOON,ioos:station:TCOON:009:1,2015-05-01T12:30:00Z,27.8398,-97.0727,0.0,0.7,192.0,1.7,'11111222,11111222,11111222' 
TCOON,ioos:station:TCOON:009:1,2015-05-01T12:36:00Z,27.8398,-97.0727,0.0,1.0,187.0,1.5,'11111222,11111222,11111222' 
TCOON,ioos:station:TCOON:009:1,2015-05-01T12:42:00Z,27.8398,-97.0727,0.0,0.9,191.0,1.8,'11111222,11111222,11111222' 
TCOON,ioos:station:TCOON:009:1,2015-05-01T12:48:00Z,27.8398,-97.0727,0.0,0.5,189.0,1.0,'11111222,11111222,11111222' 
TCOON,ioos:station:TCOON:009:1,2015-05-01T12:54:00Z,27.8398,-97.0727,0.0,1.1,231.0,1.6,'11111222,11111222,11111222' 
TCOON,ioos:station:TCOON:009:1,2015-05-01T13:00:00Z,27.8398,-97.0727,0.0,0.7,218.0,1.9,'11111222,11111222,11111222' 
TCOON,ioos:station:TCOON:009:1,2015-05-01T13:06:00Z,27.8398,-97.0727,0.0,1.3,212.0,1.6,'11111222,11111222,11111222' 
TCOON,ioos:station:TCOON:009:1,2015-05-01T13:12:00Z,27.8398,-97.0727,0.0,1.3,209.0,1.7,'11111222,11111222,11111222' 
TCOON,ioos:station:TCOON:009:1,2015-05-01T13:30:00Z,27.8398,-97.0727,0.0,1.1,210.0,1.7,'11111222,11111222,11111222' 
TCOON,ioos:station:TCOON:009:1,2015-05-01T13:36:00Z,27.8398,-97.0727,0.0,1.0,180.0,1.3,'11111222,11111222,11111222' 
TCOON,ioos:station:TCOON:009:1,2015-05-01T13:42:00Z,27.8398,-97.0727,0.0,1.1,198.0,2.0,'11111222,11111222,11111222' 
TCOON,ioos:station:TCOON:009:1,2015-05-01T13:48:00Z,27.8398,-97.0727,0.0,1.0,224.0,1.9,'11111222,11111222,11111222' 
TCOON,ioos:station:TCOON:009:1,2015-05-01T13:54:00Z,27.8398,-97.0727,0.0,1.6,223.0,2.5,'11111222,11111222,11111222' 
TCOON,ioos:station:TCOON:009:1,2015-05-01T14:00:00Z,27.8398,-97.0727,0.0,2.0,245.0,2.6,'11111222,11111222,11111222' 
TCOON,ioos:station:TCOON:009:1,2015-05-01T14:06:00Z,27.8398,-97.0727,0.0,2.0,261.0,2.9,'11111222,11111222,11111222' 
TCOON,ioos:station:TCOON:009:1,2015-05-01T14:12:00Z,27.8398,-97.0727,0.0,2.0,259.0,2.7,'11111222,11111222,11111222' 
TCOON,ioos:station:TCOON:009:1,2015-05-01T14:18:00Z,27.8398,-97.0727,0.0,2.0,259.0,2.7,'1111122,1111122,1111122' 
TCOON,ioos:station:TCOON:009:1,2015-05-01T14:30:00Z,27.8398,-97.0727,0.0,0.6,73.0,1.4,'11111222,11111222,11111222' 
TCOON,ioos:station:TCOON:009:1,2015-05-01T14:36:00Z,27.8398,-97.0727,0.0,1.7,96.0,2.4,'11111222,11111222,11111222' 
TCOON,ioos:station:TCOON:009:1,2015-05-01T14:42:00Z,27.8398,-97.0727,0.0,1.2,128.0,3.0,'11111222,11111222,11111222' 
TCOON,ioos:station:TCOON:009:1,2015-05-01T14:48:00Z,27.8398,-97.0727,0.0,1.3,77.0,1.9,'11111222,11111222,11111222' 
TCOON,ioos:station:TCOON:009:1,2015-05-01T14:54:00Z,27.8398,-97.0727,0.0,0.9,37.0,2.3,'11111222,11111222,11111222' 
TCOON,ioos:station:TCOON:009:1,2015-05-01T15:00:00Z,27.8398,-97.0727,0.0,2.3,72.0,2.8,'11111222,11111222,11111222' 
TCOON,ioos:station:TCOON:009:1,2015-05-01T15:06:00Z,27.8398,-97.0727,0.0,1.9,42.0,2.6,'11111222,11111222,11111222' 
TCOON,ioos:station:TCOON:009:1,2015-05-01T15:12:00Z,27.8398,-97.0727,0.0,1.1,64.0,2.9,'11111222,11111222,11111222' 
TCOON,ioos:station:TCOON:009:1,2015-05-01T15:18:00Z,27.8398,-97.0727,0.0,1.1,64.0,2.9,'1111122,1111122,1111122' 
TCOON,ioos:station:TCOON:009:1,2015-05-01T15:24:00Z,27.8398,-97.0727,0.0,0.9,76.0,2.1,'11111222,11111222,11111222' 
TCOON,ioos:station:TCOON:009:1,2015-05-01T15:30:00Z,27.8398,-97.0727,0.0,2.5,62.0,4.2,'11111222,11111222,11111222' 
TCOON,ioos:station:TCOON:009:1,2015-05-01T15:36:00Z,27.8398,-97.0727,0.0,1.2,118.0,2.0,'11111222,11111222,11111222' 
TCOON,ioos:station:TCOON:009:1,2015-05-01T15:42:00Z,27.8398,-97.0727,0.0,2.0,100.0,3.8,'11111222,11111222,11111222' 
TCOON,ioos:station:TCOON:009:1,2015-05-01T15:48:00Z,27.8398,-97.0727,0.0,1.8,100.0,2.5,'11111222,11111222,11111222' 
TCOON,ioos:station:TCOON:009:1,2015-05-01T15:54:00Z,27.8398,-97.0727,0.0,1.8,90.0,3.3,'11111222,11111222,11111222' 
TCOON,ioos:station:TCOON:009:1,2015-05-01T16:00:00Z,27.8398,-97.0727,0.0,2.0,114.0,4.5,'11111222,11111222,11111222' 
TCOON,ioos:station:TCOON:009:1,2015-05-01T16:06:00Z,27.8398,-97.0727,0.0,1.4,146.0,3.0,'11111222,11111222,11111222' 
TCOON,ioos:station:TCOON:009:1,2015-05-01T16:12:00Z,27.8398,-97.0727,0.0,2.1,118.0,4.1,'11111222,11111222,11111222' 
TCOON,ioos:station:TCOON:009:1,2015-05-01T16:18:00Z,27.8398,-97.0727,0.0,2.1,118.0,4.1,'1111122,1111122,1111122' 
TCOON,ioos:station:TCOON:009:1,2015-05-01T16:24:00Z,27.8398,-97.0727,0.0,1.2,108.0,3.4,'11111222,11111222,11111222' 
TCOON,ioos:station:TCOON:009:1,2015-05-01T16:30:00Z,27.8398,-97.0727,0.0,2.2,136.0,3.7,'11111222,11111222,11111222' 
TCOON,ioos:station:TCOON:009:1,2015-05-01T16:36:00Z,27.8398,-97.0727,0.0,1.4,105.0,4.5,'11111222,11111222,11111222' 
TCOON,ioos:station:TCOON:009:1,2015-05-01T16:42:00Z,27.8398,-97.0727,0.0,1.2,113.0,3.4,'11111222,11111222,11111222' 
TCOON,ioos:station:TCOON:009:1,2015-05-01T16:48:00Z,27.8398,-97.0727,0.0,1.6,117.0,4.0,'11111222,11111222,11111222' 
TCOON,ioos:station:TCOON:009:1,2015-05-01T16:54:00Z,27.8398,-97.0727,0.0,3.0,85.0,4.4,'11111222,11111222,11111222' 
TCOON,ioos:station:TCOON:009:1,2015-05-01T17:00:00Z,27.8398,-97.0727,0.0,2.9,69.0,4.2,'11111222,11111222,11111222' 
TCOON,ioos:station:TCOON:009:1,2015-05-01T17:06:00Z,27.8398,-97.0727,0.0,1.5,57.0,4.2,'11111222,11111222,11111222' 
TCOON,ioos:station:TCOON:009:1,2015-05-01T17:12:00Z,27.8398,-97.0727,0.0,2.2,69.0,3.7,'11111222,11111222,11111222' 
TCOON,ioos:station:TCOON:009:1,2015-05-01T17:18:00Z,27.8398,-97.0727,0.0,2.3,118.0,3.5,'11111222,11111222,11111222' 
TCOON,ioos:station:TCOON:009:1,2015-05-01T17:24:00Z,27.8398,-97.0727,0.0,2.3,118.0,3.5,'1111122,1111122,1111122' 
TCOON,ioos:station:TCOON:009:1,2015-05-01T17:30:00Z,27.8398,-97.0727,0.0,3.6,109.0,4.8,'11111222,11111222,11111222' 
TCOON,ioos:station:TCOON:009:1,2015-05-01T17:36:00Z,27.8398,-97.0727,0.0,2.2,85.0,4.9,'11111222,11111222,11111222' 
TCOON,ioos:station:TCOON:009:1,2015-05-01T17:42:00Z,27.8398,-97.0727,0.0,2.2,121.0,4.8,'11111222,11111222,11111222' 
TCOON,ioos:station:TCOON:009:1,2015-05-01T17:48:00Z,27.8398,-97.0727,0.0,2.7,115.0,4.6,'11111222,11111222,11111222' 
TCOON,ioos:station:TCOON:009:1,2015-05-01T17:54:00Z,27.8398,-97.0727,0.0,3.1,126.0,4.7,'11111222,11111222,11111222' 
TCOON,ioos:station:TCOON:009:1,2015-05-01T18:00:00Z,27.8398,-97.0727,0.0,2.3,106.0,3.5,'11111222,11111222,11111222' 
TCOON,ioos:station:TCOON:009:1,2015-05-01T18:06:00Z,27.8398,-97.0727,0.0,2.4,84.0,4.3,'11111222,11111222,11111222' 
TCOON,ioos:station:TCOON:009:1,2015-05-01T18:12:00Z,27.8398,-97.0727,0.0,3.3,99.0,5.5,'11111222,11111222,11111222' 
TCOON,ioos:station:TCOON:009:1,2015-05-01T18:18:00Z,27.8398,-97.0727,0.0,3.3,99.0,5.5,'1111122,1111122,1111122' 
TCOON,ioos:station:TCOON:009:1,2015-05-01T18:24:00Z,27.8398,-97.0727,0.0,3.2,80.0,5.3,'11111222,11111222,11111222' 
TCOON,ioos:station:TCOON:009:1,2015-05-01T18:30:00Z,27.8398,-97.0727,0.0,3.0,71.0,4.9,'11111222,11111222,11111222' 
TCOON,ioos:station:TCOON:009:1,2015-05-01T18:36:00Z,27.8398,-97.0727,0.0,3.9,71.0,5.2,'11111222,11111222,11111222' 
TCOON,ioos:station:TCOON:009:1,2015-05-01T18:42:00Z,27.8398,-97.0727,0.0,2.5,68.0,4.9,'11111222,11111222,11111222' 
TCOON,ioos:station:TCOON:009:1,2015-05-01T18:48:00Z,27.8398,-97.0727,0.0,3.1,70.0,4.2,'11111222,11111222,11111222' 
TCOON,ioos:station:TCOON:009:1,2015-05-01T18:54:00Z,27.8398,-97.0727,0.0,4.6,71.0,6.1,'11111222,11111222,11111222' 
TCOON,ioos:station:TCOON:009:1,2015-05-01T19:00:00Z,27.8398,-97.0727,0.0,2.5,84.0,5.4,'11111222,11111222,11111222' 
TCOON,ioos:station:TCOON:009:1,2015-05-01T19:06:00Z,27.8398,-97.0727,0.0,4.0,72.0,5.8,'11111222,11111222,11111222' 
TCOON,ioos:station:TCOON:009:1,2015-05-01T19:12:00Z,27.8398,-97.0727,0.0,3.2,103.0,5.0,'11111222,11111222,11111222' 
TCOON,ioos:station:TCOON:009:1,2015-05-01T19:18:00Z,27.8398,-97.0727,0.0,3.2,103.0,5.0,'1111122,1111122,1111122' 
TCOON,ioos:station:TCOON:009:1,2015-05-01T19:24:00Z,27.8398,-97.0727,0.0,2.6,102.0,5.3,'11111222,11111222,11111222' 
TCOON,ioos:station:TCOON:009:1,2015-05-01T19:30:00Z,27.8398,-97.0727,0.0,4.3,79.0,6.1,'11111222,11111222,11111222' 
TCOON,ioos:station:TCOON:009:1,2015-05-01T19:36:00Z,27.8398,-97.0727,0.0,4.3,107.0,5.8,'11111222,11111222,11111222' 
TCOON,ioos:station:TCOON:009:1,2015-05-01T19:42:00Z,27.8398,-97.0727,0.0,4.3,90.0,7.2,'11111222,11111222,11111222' 
TCOON,ioos:station:TCOON:009:1,2015-05-01T19:48:00Z,27.8398,-97.0727,0.0,2.5,99.0,5.4,'11111222,11111222,11111222' 
TCOON,ioos:station:TCOON:009:1,2015-05-01T19:54:00Z,27.8398,-97.0727,0.0,4.0,94.0,5.2,'11111222,11111222,11111222' 
TCOON,ioos:station:TCOON:009:1,2015-05-01T20:00:00Z,27.8398,-97.0727,0.0,4.5,67.0,5.8,'11111222,11111222,11111222' 
TCOON,ioos:station:TCOON:009:1,2015-05-01T20:06:00Z,27.8398,-97.0727,0.0,5.1,102.0,7.1,'11111222,11111222,11111222' 
TCOON,ioos:station:TCOON:009:1,2015-05-01T20:12:00Z,27.8398,-97.0727,0.0,4.0,92.0,6.8,'11111222,11111222,11111222' 
TCOON,ioos:station:TCOON:009:1,2015-05-01T20:18:00Z,27.8398,-97.0727,0.0,3.1,114.0,4.6,'11111222,11111222,11111222' 
TCOON,ioos:station:TCOON:009:1,2015-05-01T20:24:00Z,27.8398,-97.0727,0.0,3.1,114.0,4.6,'1111122,1111122,1111122' 
TCOON,ioos:station:TCOON:009:1,2015-05-01T20:30:00Z,27.8398,-97.0727,0.0,3.1,111.0,5.3,'11111222,11111222,11111222' 
TCOON,ioos:station:TCOON:009:1,2015-05-01T20:36:00Z,27.8398,-97.0727,0.0,4.6,112.0,6.5,'11111222,11111222,11111222' 
TCOON,ioos:station:TCOON:009:1,2015-05-01T20:42:00Z,27.8398,-97.0727,0.0,3.9,92.0,5.8,'11111222,11111222,11111222' 
TCOON,ioos:station:TCOON:009:1,2015-05-01T20:48:00Z,27.8398,-97.0727,0.0,4.0,77.0,5.4,'11111222,11111222,11111222' 
TCOON,ioos:station:TCOON:009:1,2015-05-01T20:54:00Z,27.8398,-97.0727,0.0,4.3,109.0,5.8,'11111222,11111222,11111222' 
TCOON,ioos:station:TCOON:009:1,2015-05-01T21:00:00Z,27.8398,-97.0727,0.0,3.9,80.0,5.2,'11111222,11111222,11111222' 
TCOON,ioos:station:TCOON:009:1,2015-05-01T21:06:00Z,27.8398,-97.0727,0.0,3.4,89.0,5.2,'11111222,11111222,11111222' 
TCOON,ioos:station:TCOON:009:1,2015-05-01T21:12:00Z,27.8398,-97.0727,0.0,3.3,109.0,5.5,'11111222,11111222,11111222' 
TCOON,ioos:station:TCOON:009:1,2015-05-01T21:18:00Z,27.8398,-97.0727,0.0,3.3,109.0,5.5,'1111122,1111122,1111122' 
TCOON,ioos:station:TCOON:009:1,2015-05-01T21:24:00Z,27.8398,-97.0727,0.0,3.4,88.0,5.4,'11111222,11111222,11111222' 
TCOON,ioos:station:TCOON:009:1,2015-05-01T21:30:00Z,27.8398,-97.0727,0.0,2.9,93.0,5.3,'11111222,11111222,11111222' 
TCOON,ioos:station:TCOON:009:1,2015-05-01T21:36:00Z,27.8398,-97.0727,0.0,2.7,110.0,6.0,'11111222,11111222,11111222' 
TCOON,ioos:station:TCOON:009:1,2015-05-01T21:42:00Z,27.8398,-97.0727,0.0,3.2,85.0,6.0,'11111222,11111222,11111222' 